Regional Weather Roundup
Issued by NWS

Home | Current Version | Previous Version | Text Only | Print | Product List | Glossary On
Versions: 1 2 3 4 5 6 7 8 9 10 11 12 13 14 15 16 17 18 19 20 21 22 23 24 25 26 27 28 29 30 31 32 33 34 35 36 37 38 39 40 41 42 43 44 45 46 47 48 49 50
000
ASUS43 KFSD 041210
RWRSD

WEATHER ROUNDUP FOR SOUTH DAKOTA
NATIONAL WEATHER SERVICE SIOUX FALLS SD
700 AM CDT MON MAY 04 2015

NOTE: "FAIR" INDICATES FEW OR NO CLOUDS BELOW 12,000 FEET WITH NO
SIGNIFICANT WEATHER AND/OR OBSTRUCTIONS TO VISIBILITY.


SDZ001>005-009-010-012>017-041300-
NORTHWEST AND NORTH CENTRAL SOUTH DAKOTA

CITY           SKY/WX    TMP DP  RH WIND       PRES   REMARKS
BUFFALO          N/A     45  31  58 SE12      30.08R
FAITH            N/A     49  23  36 SE10      30.16R
MOBRIDGE       CLOUDY    38  28  67 CALM      30.16R
$$

SDZ012>016-024>037-041>051-057-063-072>074-041300-
SOUTHWEST AND SOUTH CENTRAL SOUTH DAKOTA

CITY           SKY/WX    TMP DP  RH WIND       PRES   REMARKS
RAPID CTY ARPT LGT RAIN  48  38  68 SW6       30.17R
PIERRE         MOCLDY    43  25  49 NE3       30.15R
CUSTER         CLOUDY    37  34  89 NE6       30.17R
ELLSWORTH AFB  LGT RAIN  48  37  66 S14G32    30.18
PHILIP         CLOUDY    48  27  44 CALM      30.17R
PINE RIDGE     CLOUDY    48  35  60 E7        30.14R
SPEARFISH      LGT RAIN  45  41  87 S20       30.12S
WINNER         FAIR      44  27  51 SW6       30.15R
$$

SDZ004>011-016>023-039-040-041300-
NORTHEAST SOUTH DAKOTA

CITY           SKY/WX    TMP DP  RH WIND       PRES   REMARKS
ABERDEEN       MOCLDY    31  24  75 SW3       30.19R
WATERTOWN      CLEAR     42  26  53 CALM      30.16R
BROOKINGS      CLEAR     45  28  53 NE8       30.14S
SISSETON         N/A     41  27  57 NW5       30.17R
$$

SDZ017-020-022-023-036>040-048>070-041300-
SOUTHEAST SOUTH DAKOTA

CITY           SKY/WX    TMP DP  RH WIND       PRES   REMARKS
SIOUX FALLS    MOCLDY    46  29  51 N10       30.11R
HURON          PTCLDY    34  26  72 NW5       30.15S WCI  30
CHAMBERLAIN    PTCLDY    44  26  48 NE3       30.14R
MITCHELL       CLEAR     41  33  73 N7        30.13S
YANKTON        PTCLDY    52  27  37 N14       30.10R
$$

ABBREVIATIONS USED IN REMARKS
   TC - TEMPERATURE IN CELSIUS
  WCI - WIND CHILL INDEX
   HX - HEAT INDEX
  VSB - VISIBILITY



USA.gov is the U.S. government's official web portal to all federal, state and local government web resources and services.